Regional Weather Roundup
Issued by NWS

Home | Current Version | Previous Version | Graphics & Text | Print | Product List | Glossary On
Versions: 1 2 3 4 5 6 7 8 9 10 11 12 13 14 15 16 17 18 19 20 21 22 23 24 25 26 27 28 29 30 31 32 33 34 35 36 37 38 39 40 41 42 43 44 45 46 47 48 49 50
000
ASUS43 KLMK 290810
RWRKY
KENTUCKY REGIONAL WEATHER ROUNDUP
NATIONAL WEATHER SERVICE LOUISVILLE KY
400 AM EDT WED JUL 29 2015

NOTE "FAIR" INDICATES FEW OR NO CLOUDS BELOW 12,000 FEET
WITH NO SIGNIFICANT WEATHER AND/OR OBSTRUCTIONS TO VISIBILITY.

KYZ001>023-026-027-061>063-070>075-290900-
WESTERN AND SOUTH CENTRAL KENTUCKY

CITY           SKY/WX    TMP DP  RH WIND       PRES   REMARKS
PADUCAH        PTCLDY    75  70  84 SW3       29.95F
HENDERSON      CLEAR     73  70  88 CALM      29.94S
OWENSBORO      NOT AVBL
HOPKINSVILLE   CLEAR     73  72  97 CALM      29.97F
BOWLING GREEN  PTCLDY    73  70  90 E3        29.98F
GLASGOW        CLEAR    N/A N/A N/A CALM      29.99S HAZE
$$

KYZ024-025-028>034-038-045-046-053-290900-
NORTH CENTRAL KENTUCKY

CITY           SKY/WX    TMP DP  RH WIND       PRES   REMARKS
LOUISVILLE/SDF MOCLDY    79  73  82 SW5       29.94F
LOUISVILLE/LOU CLEAR     78  74  87 CALM      29.95F
FORT KNOX      PTCLDY    74  72  94 W2        29.95F
$$

KYZ035>037-039>044-047>052-055>060-089>105-290900-
NORTHEAST KENTUCKY

CITY           SKY/WX    TMP DP  RH WIND       PRES   REMARKS
LEXINGTON      PTCLDY    71  70  96 S3        29.98F FOG
COVINGTON      CLEAR     73  72  96 CALM      29.96F FOG
FRANKFORT      CLEAR     73  71  93 CALM      29.96F
$$

KYZ054-064>069-076>088-106>120-290900-
SOUTHEAST KENTUCKY

CITY           SKY/WX    TMP DP  RH WIND       PRES   REMARKS
JACKSON        FOG       73  71  93 CALM      30.01S VSB 1/4
LONDON         FOG       71  68  90 E3        30.00F VSB 1/4
SOMERSET       FOG       68  68 100 CALM      30.01F VSB 1/2
MIDDLESBORO    CLOUDY    73  73  99 CALM      30.02S
MONTICELLO     SUNNY     71  71 100 CALM      30.02F
$$



USA.gov is the U.S. government's official web portal to all federal, state and local government web resources and services.